Location: Rounton
(54.4000°N, 1.3500°W)
Time: 21:34:35
(UTC+00:00)

Vanguard 1 - Pass Details

Date: 05 December 2021
Orbit: 652 x 3830 km, 34.2° (Epoch: 16 January)

Event Time Altitude Azimuth Distance (km) Brightness Sun altitude
Rises 20:34:01 0° 174° (S) 6,850 14.2 -40.7°
Enters shadow 20:35:58 - 169° (S) 6,702 14.1 -41.0°
Reaches altitude 10° 20:42:06 10° 153° (SSE) 6,399 - -41.8°
Maximum altitude 20:51:05 14° 127° (SE) 6,410 - -43.0°
Drops below altitude 10° 21:00:39 10° 103° (ESE) 6,938 - -44.3°
Sets 21:10:05 0° 84° (E) 7,823 - -45.5°
